| time (UTC) | temp F | wind direction | speed MPH | gust MPH | rain 1hr in | rain 24hr in | rain mn in | humidity % | barometer mb |
| 20260509002704 | 59 | 39 | 0.0 | 0.0 | 0.00 | 0.00 | 0.00 | 32 | 1010.1 |
| 20260509002201 | 59 | 218 | 2.0 | 2.0 | 0.00 | 0.00 | 0.00 | 30 | 1010.0 |
| 20260509001659 | 59 | 4 | 1.0 | 1.0 | 0.00 | 0.00 | 0.00 | 31 | 1010.1 |
| 20260509001155 | 60 | 87 | 1.0 | 1.0 | 0.00 | 0.00 | 0.00 | 31 | 1010.2 |
| 20260509000653 | 60 | 247 | 3.0 | 5.0 | 0.00 | 0.00 | 0.00 | 30 | 1010.2 |
| 20260509000150 | 60 | 206 | 1.0 | 2.0 | 0.00 | 0.00 | 0.00 | 30 | 1010.3 |
| 20260508235647 | 60 | 43 | 0.0 | 0.0 | 0.00 | 0.00 | 0.00 | 30 | 1010.4 |
| 20260508235143 | 60 | 239 | 4.0 | 5.0 | 0.00 | 0.00 | 0.00 | 29 | 1010.3 |
| 20260508234640 | 60 | 217 | 3.0 | 5.0 | 0.00 | 0.00 | 0.00 | 30 | 1010.5 |
| 20260508234136 | 61 | 256 | 2.0 | 3.0 | 0.00 | 0.00 | 0.00 | 29 | 1010.4 |
| 20260508233631 | 60 | 220 | 1.0 | 2.0 | 0.00 | 0.00 | 0.00 | 29 | 1010.6 |
| 20260508233128 | 61 | 269 | 6.0 | 8.0 | 0.00 | 0.00 | 0.00 | 29 | 1010.7 |
| 20260508232625 | 61 | 298 | 3.0 | 5.0 | 0.00 | 0.00 | 0.00 | 29 | 1010.6 |
| 20260508232122 | 61 | 209 | 4.0 | 5.0 | 0.00 | 0.00 | 0.00 | 29 | 1010.6 |
| 20260508231620 | 62 | 235 | 3.0 | 3.0 | 0.00 | 0.00 | 0.00 | 29 | 1010.6 |
| 20260508231116 | 61 | 318 | 3.0 | 3.0 | 0.00 | 0.00 | 0.00 | 28 | 1010.7 |
| 20260508230613 | 62 | 215 | 5.0 | 6.0 | 0.00 | 0.00 | 0.00 | 28 | 1010.6 |
| 20260508230109 | 62 | 339 | 2.0 | 2.0 | 0.00 | 0.00 | 0.00 | 29 | 1010.7 |
| 20260508225607 | 62 | 236 | 2.0 | 2.0 | 0.00 | 0.00 | 0.00 | 28 | 1010.5 |
| 20260508225103 | 62 | 1 | 1.0 | 1.0 | 0.00 | 0.00 | 0.00 | 28 | 1010.6 |
| 20260508224601 | 62 | 2 | 1.0 | 1.0 | 0.00 | 0.00 | 0.00 | 29 | 1010.5 |
| 20260508224058 | 62 | 11 | 2.0 | 2.0 | 0.00 | 0.00 | 0.00 | 29 | 1010.7 |
| 20260508223556 | 62 | 289 | 1.0 | 2.0 | 0.00 | 0.00 | 0.00 | 28 | 1010.6 |
| 20260508223053 | 62 | 347 | 3.0 | 3.0 | 0.00 | 0.00 | 0.00 | 29 | 1010.7 |
| 20260508222550 | 63 | 199 | 4.0 | 6.0 | 0.00 | 0.00 | 0.00 | 27 | 1010.7 |
| 20260508222048 | 62 | 251 | 3.0 | 3.0 | 0.00 | 0.00 | 0.00 | 28 | 1010.8 |
| 20260508221544 | 62 | 292 | 4.0 | 5.0 | 0.00 | 0.00 | 0.00 | 28 | 1010.8 |
| 20260508221039 | 63 | 264 | 2.0 | 2.0 | 0.00 | 0.00 | 0.00 | 28 | 1010.9 |
| 20260508220536 | 63 | 7 | 2.0 | 2.0 | 0.00 | 0.00 | 0.00 | 28 | 1010.8 |
| 20260508220032 | 64 | 308 | 2.0 | 2.0 | 0.00 | 0.00 | 0.00 | 28 | 1010.8 |
| 20260508215530 | 63 | 339 | 2.0 | 2.0 | 0.00 | 0.00 | 0.00 | 28 | 1010.6 |
| 20260508215026 | 64 | 325 | 1.0 | 2.0 | 0.00 | 0.00 | 0.00 | 27 | 1010.7 |
| 20260508214524 | 64 | 223 | 5.0 | 7.0 | 0.00 | 0.00 | 0.00 | 26 | 1010.9 |
| 20260508214020 | 64 | 263 | 2.0 | 2.0 | 0.00 | 0.00 | 0.00 | 27 | 1010.6 |
| 20260508213518 | 64 | 230 | 4.0 | 6.0 | 0.00 | 0.00 | 0.00 | 26 | 1011.0 |
| 20260508213013 | 65 | 291 | 2.0 | 3.0 | 0.00 | 0.00 | 0.00 | 27 | 1010.9 |
| 20260508212510 | 65 | 287 | 1.0 | 1.0 | 0.00 | 0.00 | 0.00 | 26 | 1010.8 |
| 20260508212006 | 65 | 313 | 5.0 | 7.0 | 0.00 | 0.00 | 0.00 | 28 | 1011.0 |
| 20260508211502 | 64 | 351 | 1.0 | 1.0 | 0.00 | 0.00 | 0.00 | 27 | 1011.0 |
| 20260508210958 | 65 | 239 | 4.0 | 6.0 | 0.00 | 0.00 | 0.00 | 27 | 1011.0 |
| 20260508210455 | 65 | 35 | 0.0 | 0.0 | 0.00 | 0.00 | 0.00 | 28 | 1011.1 |
| 20260508205951 | 64 | 263 | 3.0 | 3.0 | 0.00 | 0.00 | 0.00 | 28 | 1011.0 |
| 20260508205449 | 64 | 218 | 3.0 | 3.0 | 0.00 | 0.00 | 0.00 | 28 | 1011.0 |
| 20260508204945 | 64 | 3 | 1.0 | 1.0 | 0.00 | 0.00 | 0.00 | 27 | 1011.2 |
| 20260508204442 | 64 | 332 | 1.0 | 2.0 | 0.00 | 0.00 | 0.00 | 26 | 1011.4 |
| 20260508203937 | 64 | 321 | 2.0 | 2.0 | 0.00 | 0.00 | 0.00 | 26 | 1011.2 |
| 20260508203434 | 64 | 269 | 3.0 | 3.0 | 0.00 | 0.00 | 0.00 | 28 | 1011.3 |
| 20260508202930 | 65 | 271 | 2.0 | 2.0 | 0.00 | 0.00 | 0.00 | 26 | 1011.4 |
| 20260508202428 | 64 | 205 | 3.0 | 3.0 | 0.00 | 0.00 | 0.00 | 26 | 1011.4 |
| 20260508201924 | 64 | 253 | 3.0 | 3.0 | 0.00 | 0.00 | 0.00 | 25 | 1011.6 |
| 20260508201421 | 63 | 304 | 3.0 | 3.0 | 0.00 | 0.00 | 0.00 | 27 | 1011.4 |
| 20260508200918 | 64 | 272 | 3.0 | 5.0 | 0.00 | 0.00 | 0.00 | 27 | 1011.6 |
| 20260508200414 | 66 | 351 | 1.0 | 2.0 | 0.00 | 0.00 | 0.00 | 27 | 1011.7 |
| 20260508195910 | 64 | 46 | 1.0 | 1.0 | 0.00 | 0.00 | 0.00 | 26 | 1011.9 |
| 20260508195407 | 64 | 265 | 4.0 | 6.0 | 0.00 | 0.00 | 0.00 | 26 | 1011.9 |
| 20260508194903 | 64 | 328 | 1.0 | 2.0 | 0.00 | 0.00 | 0.00 | 27 | 1012.2 |
| 20260508194400 | 65 | 17 | 2.0 | 2.0 | 0.00 | 0.00 | 0.00 | 27 | 1012.0 |
| 20260508193857 | 63 | 22 | 0.0 | 1.0 | 0.00 | 0.00 | 0.00 | 26 | 1012.0 |
| 20260508193354 | 64 | 274 | 3.0 | 3.0 | 0.00 | 0.00 | 0.00 | 27 | 1012.1 |
| 20260508192850 | 63 | 334 | 2.0 | 2.0 | 0.00 | 0.00 | 0.00 | 28 | 1012.3 |
| 20260508192347 | 63 | 340 | 1.0 | 2.0 | 0.00 | 0.00 | 0.00 | 27 | 1012.2 |
| 20260508191845 | 63 | 13 | 1.0 | 2.0 | 0.00 | 0.00 | 0.00 | 28 | 1012.2 |
| 20260508191342 | 63 | 220 | 3.0 | 5.0 | 0.00 | 0.00 | 0.00 | 28 | 1012.2 |
| 20260508190839 | 62 | 262 | 2.0 | 2.0 | 0.00 | 0.00 | 0.00 | 28 | 1012.2 |
| 20260508190335 | 64 | 297 | 2.0 | 2.0 | 0.00 | 0.00 | 0.00 | 28 | 1012.2 |
| 20260508185831 | 62 | 24 | 1.0 | 1.0 | 0.00 | 0.00 | 0.00 | 30 | 1012.3 |
| 20260508185329 | 61 | 350 | 1.0 | 1.0 | 0.00 | 0.00 | 0.00 | 30 | 1012.4 |
| 20260508184826 | 61 | 305 | 2.0 | 2.0 | 0.00 | 0.00 | 0.00 | 28 | 1012.4 |
| 20260508184324 | 62 | 237 | 3.0 | 3.0 | 0.00 | 0.00 | 0.00 | 28 | 1012.5 |
| 20260508183820 | 61 | 342 | 1.0 | 2.0 | 0.00 | 0.00 | 0.00 | 30 | 1012.5 |
| 20260508183317 | 61 | 215 | 5.0 | 6.0 | 0.00 | 0.00 | 0.00 | 28 | 1012.7 |
| 20260508182812 | 61 | 253 | 3.0 | 5.0 | 0.00 | 0.00 | 0.00 | 29 | 1012.6 |
| 20260508182310 | 62 | 258 | 3.0 | 3.0 | 0.00 | 0.00 | 0.00 | 29 | 1012.4 |
| 20260508181805 | 62 | 313 | 2.0 | 2.0 | 0.00 | 0.00 | 0.00 | 31 | 1012.7 |
| 20260508181302 | 62 | 0 | 0.0 | 1.0 | 0.00 | 0.00 | 0.00 | 30 | 1012.5 |
| 20260508180754 | 62 | 268 | 3.0 | 3.0 | 0.00 | 0.00 | 0.00 | 29 | 1012.8 |
| 20260508180250 | 62 | 212 | 5.0 | 6.0 | 0.00 | 0.00 | 0.00 | 29 | 1012.7 |
| 20260508175747 | 62 | 67 | 1.0 | 1.0 | 0.00 | 0.00 | 0.00 | 29 | 1012.9 |
| 20260508175243 | 62 | 306 | 3.0 | 6.0 | 0.00 | 0.00 | 0.00 | 30 | 1012.9 |
| 20260508174742 | 62 | 11 | 0.0 | 0.0 | 0.00 | 0.00 | 0.00 | 28 | 1012.7 |
| 20260508174239 | 62 | 35 | 1.0 | 1.0 | 0.00 | 0.00 | 0.00 | 31 | 1013.3 |
| 20260508173735 | 62 | 289 | 3.0 | 5.0 | 0.00 | 0.00 | 0.00 | 30 | 1013.1 |
| 20260508173231 | 62 | 342 | 2.0 | 3.0 | 0.00 | 0.00 | 0.00 | 31 | 1013.1 |
| 20260508172728 | 61 | 242 | 4.0 | 5.0 | 0.00 | 0.00 | 0.00 | 30 | 1013.3 |
| 20260508172225 | 62 | 267 | 5.0 | 7.0 | 0.00 | 0.00 | 0.00 | 30 | 1013.4 |
| 20260508171721 | 62 | 340 | 0.0 | 1.0 | 0.00 | 0.00 | 0.00 | 34 | 1013.3 |
| 20260508171217 | 62 | 217 | 7.0 | 10.0 | 0.00 | 0.00 | 0.00 | 33 | 1013.4 |
| 20260508170715 | 60 | 253 | 2.0 | 2.0 | 0.00 | 0.00 | 0.00 | 36 | 1013.4 |
| 20260508170212 | 61 | 289 | 2.0 | 2.0 | 0.00 | 0.00 | 0.00 | 35 | 1013.5 |
| 20260508165709 | 62 | 246 | 2.0 | 2.0 | 0.00 | 0.00 | 0.00 | 34 | 1013.8 |
| 20260508165206 | 61 | 344 | 3.0 | 3.0 | 0.00 | 0.00 | 0.00 | 35 | 1013.9 |
| 20260508164703 | 61 | 320 | 2.0 | 2.0 | 0.00 | 0.00 | 0.00 | 33 | 1013.9 |
| 20260508164159 | 60 | 278 | 2.0 | 3.0 | 0.00 | 0.00 | 0.00 | 33 | 1014.1 |
| 20260508163657 | 61 | 306 | 4.0 | 6.0 | 0.00 | 0.00 | 0.00 | 34 | 1014.0 |
| 20260508163154 | 60 | 240 | 5.0 | 5.0 | 0.00 | 0.00 | 0.00 | 32 | 1014.1 |
| 20260508162649 | 59 | 33 | 1.0 | 1.0 | 0.00 | 0.00 | 0.00 | 33 | 1014.1 |
| 20260508162148 | 59 | 49 | 1.0 | 1.0 | 0.00 | 0.00 | 0.00 | 34 | 1014.1 |
| 20260508161645 | 60 | 253 | 2.0 | 2.0 | 0.00 | 0.00 | 0.00 | 35 | 1013.9 |
| 20260508161142 | 60 | 315 | 2.0 | 2.0 | 0.00 | 0.00 | 0.00 | 32 | 1014.2 |
| 20260508160640 | 60 | 209 | 3.0 | 5.0 | 0.00 | 0.00 | 0.00 | 31 | 1014.2 |
| 20260508160137 | 59 | 340 | 2.0 | 3.0 | 0.00 | 0.00 | 0.00 | 34 | 1014.2 |
| 20260508155634 | 59 | 55 | 3.0 | 3.0 | 0.00 | 0.00 | 0.00 | 33 | 1014.3 |
| 20260508155131 | 59 | 36 | 1.0 | 1.0 | 0.00 | 0.00 | 0.00 | 33 | 1014.2 |
| 20260508154628 | 59 | 233 | 3.0 | 5.0 | 0.00 | 0.00 | 0.00 | 31 | 1014.5 |
| 20260508154124 | 60 | 247 | 4.0 | 6.0 | 0.00 | 0.00 | 0.00 | 33 | 1014.2 |
| 20260508153621 | 59 | 252 | 2.0 | 2.0 | 0.00 | 0.00 | 0.00 | 38 | 1014.4 |
| 20260508153118 | 58 | 25 | 0.0 | 0.0 | 0.00 | 0.00 | 0.00 | 38 | 1014.1 |
| 20260508152615 | 58 | 240 | 4.0 | 5.0 | 0.00 | 0.00 | 0.00 | 39 | 1014.5 |
| 20260508152110 | 57 | 37 | 0.0 | 1.0 | 0.00 | 0.00 | 0.00 | 38 | 1014.3 |
| 20260508151607 | 58 | 214 | 3.0 | 5.0 | 0.00 | 0.00 | 0.00 | 36 | 1014.3 |
| 20260508151104 | 59 | 230 | 3.0 | 3.0 | 0.00 | 0.00 | 0.00 | 36 | 1014.5 |
| 20260508150601 | 58 | 355 | 1.0 | 1.0 | 0.00 | 0.00 | 0.00 | 40 | 1014.4 |
| 20260508150057 | 57 | 334 | 2.0 | 2.0 | 0.00 | 0.00 | 0.00 | 40 | 1014.6 |
| 20260508145554 | 57 | 237 | 2.0 | 2.0 | 0.00 | 0.00 | 0.00 | 35 | 1014.7 |
| 20260508145050 | 56 | 314 | 1.0 | 2.0 | 0.00 | 0.00 | 0.00 | 40 | 1014.5 |
| 20260508144548 | 57 | 243 | 3.0 | 6.0 | 0.00 | 0.00 | 0.00 | 40 | 1014.7 |
| 20260508144045 | 56 | 217 | 4.0 | 5.0 | 0.00 | 0.00 | 0.00 | 40 | 1014.6 |
| 20260508143543 | 55 | 228 | 2.0 | 2.0 | 0.00 | 0.00 | 0.00 | 45 | 1014.6 |
| 20260508143039 | 55 | 220 | 5.0 | 8.0 | 0.00 | 0.00 | 0.00 | 43 | 1014.6 |
| 20260508142536 | 57 | 163 | 2.0 | 3.0 | 0.00 | 0.00 | 0.00 | 44 | 1014.7 |
| 20260508142032 | 56 | 332 | 2.0 | 2.0 | 0.00 | 0.00 | 0.00 | 46 | 1014.9 |
| 20260508141529 | 55 | 243 | 3.0 | 5.0 | 0.00 | 0.00 | 0.00 | 47 | 1014.7 |
| 20260508141027 | 55 | 230 | 1.0 | 2.0 | 0.00 | 0.00 | 0.00 | 47 | 1014.7 |
| 20260508140524 | 55 | 340 | 1.0 | 1.0 | 0.00 | 0.00 | 0.00 | 47 | 1014.8 |
| 20260508140020 | 56 | 212 | 1.0 | 2.0 | 0.00 | 0.00 | 0.00 | 48 | 1014.8 |
| 20260508135516 | 55 | 39 | 1.0 | 1.0 | 0.00 | 0.00 | 0.00 | 48 | 1014.9 |
| 20260508135012 | 57 | 217 | 3.0 | 5.0 | 0.00 | 0.00 | 0.00 | 50 | 1014.8 |
| 20260508134509 | 54 | 59 | 1.0 | 1.0 | 0.00 | 0.00 | 0.00 | 56 | 1014.8 |
| 20260508134006 | 54 | 51 | 0.0 | 1.0 | 0.00 | 0.00 | 0.00 | 54 | 1014.9 |
| 20260508133503 | 55 | 237 | 1.0 | 1.0 | 0.00 | 0.00 | 0.00 | 54 | 1014.9 |
| 20260508133000 | 57 | 74 | 0.0 | 1.0 | 0.00 | 0.00 | 0.00 | 54 | 1014.8 |
| 20260508132458 | 57 | 78 | 1.0 | 1.0 | 0.00 | 0.00 | 0.00 | 54 | 1014.9 |
| 20260508131954 | 54 | 31 | 0.0 | 0.0 | 0.00 | 0.00 | 0.00 | 59 | 1014.9 |
| 20260508131450 | 51 | 47 | 0.0 | 0.0 | 0.00 | 0.00 | 0.00 | 64 | 1015.0 |
| 20260508130947 | 51 | 231 | 2.0 | 2.0 | 0.00 | 0.00 | 0.00 | 63 | 1015.0 |
| 20260508130444 | 54 | 38 | 0.0 | 0.0 | 0.00 | 0.00 | 0.00 | 62 | 1015.0 |
| 20260508125939 | 51 | 44 | 0.0 | 0.0 | 0.00 | 0.00 | 0.00 | 65 | 1015.2 |
| 20260508125436 | 51 | 353 | 2.0 | 3.0 | 0.00 | 0.00 | 0.00 | 65 | 1015.2 |
| 20260508124934 | 49 | 349 | 1.0 | 1.0 | 0.00 | 0.00 | 0.00 | 68 | 1015.3 |
| 20260508124431 | 48 | 233 | 1.0 | 2.0 | 0.00 | 0.00 | 0.00 | 68 | 1015.3 |
| 20260508123929 | 48 | 32 | 0.0 | 1.0 | 0.00 | 0.00 | 0.00 | 68 | 1015.2 |
| 20260508123427 | 48 | 358 | 1.0 | 1.0 | 0.00 | 0.00 | 0.00 | 69 | 1015.2 |
| 20260508122923 | 47 | 353 | 1.0 | 1.0 | 0.00 | 0.00 | 0.00 | 69 | 1015.1 |
| 20260508122420 | 47 | 297 | 1.0 | 2.0 | 0.00 | 0.00 | 0.00 | 69 | 1015.0 |
| 20260508121917 | 49 | 216 | 1.0 | 2.0 | 0.00 | 0.00 | 0.00 | 66 | 1015.0 |
| 20260508121416 | 50 | 53 | 0.0 | 0.0 | 0.00 | 0.00 | 0.00 | 67 | 1015.0 |
| 20260508120913 | 49 | 51 | 1.0 | 1.0 | 0.00 | 0.00 | 0.00 | 67 | 1015.0 |
| 20260508120411 | 48 | 51 | 0.0 | 0.0 | 0.00 | 0.00 | 0.00 | 72 | 1014.9 |
| 20260508115908 | 45 | 36 | 0.0 | 0.0 | 0.00 | 0.00 | 0.00 | 78 | 1015.1 |
| 20260508115406 | 44 | 40 | 0.0 | 0.0 | 0.00 | 0.00 | 0.00 | 76 | 1014.8 |
| 20260508114902 | 46 | 38 | 0.0 | 1.0 | 0.00 | 0.00 | 0.00 | 73 | 1014.7 |
| 20260508114359 | 44 | 43 | 0.0 | 0.0 | 0.00 | 0.00 | 0.00 | 77 | 1014.8 |
| 20260508113855 | 43 | 39 | 0.0 | 0.0 | 0.00 | 0.00 | 0.00 | 79 | 1014.6 |
| 20260508113353 | 44 | 41 | 0.0 | 0.0 | 0.00 | 0.00 | 0.00 | 82 | 1014.7 |
| 20260508112850 | 41 | 39 | 0.0 | 0.0 | 0.00 | 0.00 | 0.00 | 89 | 1014.5 |
| 20260508112347 | 39 | 39 | 0.0 | 0.0 | 0.00 | 0.00 | 0.00 | 93 | 1014.6 |
| 20260508111843 | 39 | 38 | 0.0 | 0.0 | 0.00 | 0.00 | 0.00 | 94 | 1014.7 |
| 20260508111341 | 37 | 38 | 0.0 | 0.0 | 0.00 | 0.00 | 0.00 | 96 | 1014.6 |
| 20260508110838 | 35 | 37 | 0.0 | 0.0 | 0.00 | 0.00 | 0.00 | 97 | 1014.7 |
| 20260508110336 | 34 | 35 | 0.0 | 0.0 | 0.00 | 0.00 | 0.00 | 97 | 1014.6 |
| 20260508105835 | 33 | 35 | 0.0 | 0.0 | 0.00 | 0.00 | 0.00 | 97 | 1014.6 |
| 20260508105332 | 32 | 35 | 0.0 | 0.0 | 0.00 | 0.00 | 0.00 | 97 | 1014.5 |
| 20260508104829 | 32 | 35 | 0.0 | 0.0 | 0.00 | 0.00 | 0.00 | 97 | 1014.5 |
| 20260508104326 | 32 | 35 | 0.0 | 0.0 | 0.00 | 0.00 | 0.00 | 97 | 1014.3 |
| 20260508103823 | 32 | 35 | 0.0 | 0.0 | 0.00 | 0.00 | 0.00 | 97 | 1014.5 |
| 20260508103320 | 32 | 35 | 0.0 | 0.0 | 0.00 | 0.00 | 0.00 | 97 | 1014.5 |
| 20260508102818 | 32 | 35 | 0.0 | 0.0 | 0.00 | 0.00 | 0.00 | 97 | 1014.4 |
| 20260508102315 | 32 | 35 | 0.0 | 0.0 | 0.00 | 0.00 | 0.00 | 96 | 1014.5 |
| 20260508101812 | 32 | 35 | 0.0 | 0.0 | 0.00 | 0.00 | 0.00 | 97 | 1014.4 |
| 20260508101310 | 32 | 35 | 0.0 | 0.0 | 0.00 | 0.00 | 0.00 | 97 | 1014.5 |
| 20260508100807 | 32 | 35 | 0.0 | 0.0 | 0.00 | 0.00 | 0.00 | 96 | 1014.6 |
| 20260508100306 | 33 | 35 | 0.0 | 0.0 | 0.00 | 0.00 | 0.00 | 96 | 1014.5 |
| 20260508095801 | 32 | 35 | 0.0 | 0.0 | 0.00 | 0.00 | 0.00 | 96 | 1014.5 |
| 20260508095259 | 32 | 35 | 0.0 | 0.0 | 0.00 | 0.00 | 0.00 | 96 | 1014.5 |
| 20260508094755 | 33 | 35 | 0.0 | 0.0 | 0.00 | 0.00 | 0.00 | 96 | 1014.5 |
| 20260508094253 | 33 | 35 | 0.0 | 0.0 | 0.00 | 0.00 | 0.00 | 96 | 1014.6 |
| 20260508093750 | 33 | 35 | 0.0 | 0.0 | 0.00 | 0.00 | 0.00 | 96 | 1014.6 |
| 20260508093247 | 33 | 35 | 0.0 | 0.0 | 0.00 | 0.00 | 0.00 | 96 | 1014.6 |
| 20260508092744 | 33 | 35 | 0.0 | 0.0 | 0.00 | 0.00 | 0.00 | 95 | 1014.9 |
| 20260508092242 | 33 | 35 | 0.0 | 0.0 | 0.00 | 0.00 | 0.00 | 95 | 1014.7 |
| 20260508091740 | 33 | 35 | 0.0 | 0.0 | 0.00 | 0.00 | 0.00 | 95 | 1014.7 |
| 20260508091237 | 33 | 35 | 0.0 | 0.0 | 0.00 | 0.00 | 0.00 | 95 | 1014.8 |
| 20260508090734 | 34 | 35 | 0.0 | 0.0 | 0.00 | 0.00 | 0.00 | 95 | 1014.8 |
| 20260508090232 | 34 | 35 | 0.0 | 0.0 | 0.00 | 0.00 | 0.00 | 95 | 1014.6 |
| 20260508085727 | 34 | 35 | 0.0 | 0.0 | 0.00 | 0.00 | 0.00 | 95 | 1014.7 |
| 20260508085225 | 34 | 35 | 0.0 | 0.0 | 0.00 | 0.00 | 0.00 | 95 | 1014.8 |
| 20260508084720 | 34 | 35 | 0.0 | 0.0 | 0.00 | 0.00 | 0.00 | 94 | 1014.9 |
| 20260508084218 | 34 | 35 | 0.0 | 0.0 | 0.00 | 0.00 | 0.00 | 95 | 1014.8 |
| 20260508083716 | 34 | 35 | 0.0 | 0.0 | 0.00 | 0.00 | 0.00 | 94 | 1014.7 |
| 20260508083213 | 34 | 35 | 0.0 | 0.0 | 0.00 | 0.00 | 0.00 | 94 | 1014.6 |
| 20260508082708 | 34 | 35 | 0.0 | 0.0 | 0.00 | 0.00 | 0.00 | 94 | 1014.7 |
| 20260508082206 | 34 | 35 | 0.0 | 0.0 | 0.00 | 0.00 | 0.00 | 93 | 1014.8 |
| 20260508081703 | 35 | 35 | 0.0 | 0.0 | 0.00 | 0.00 | 0.00 | 93 | 1014.8 |
| 20260508081159 | 35 | 35 | 0.0 | 0.0 | 0.00 | 0.00 | 0.00 | 93 | 1014.8 |
| 20260508080657 | 35 | 35 | 0.0 | 0.0 | 0.00 | 0.00 | 0.00 | 93 | 1015.0 |
| 20260508080155 | 36 | 35 | 0.0 | 0.0 | 0.00 | 0.00 | 0.00 | 93 | 1014.9 |
| 20260508075651 | 35 | 35 | 0.0 | 0.0 | 0.00 | 0.00 | 0.00 | 92 | 1014.7 |
| 20260508075148 | 35 | 35 | 0.0 | 0.0 | 0.00 | 0.00 | 0.00 | 92 | 1014.9 |
| 20260508074646 | 35 | 35 | 0.0 | 0.0 | 0.00 | 0.00 | 0.00 | 91 | 1015.0 |
| 20260508074143 | 36 | 35 | 0.0 | 0.0 | 0.00 | 0.00 | 0.00 | 91 | 1014.9 |
| 20260508073640 | 36 | 35 | 0.0 | 0.0 | 0.00 | 0.00 | 0.00 | 91 | 1015.0 |
| 20260508073138 | 36 | 35 | 0.0 | 0.0 | 0.00 | 0.00 | 0.00 | 91 | 1014.8 |
| 20260508072633 | 36 | 35 | 0.0 | 0.0 | 0.00 | 0.00 | 0.00 | 90 | 1015.1 |
| 20260508072130 | 36 | 35 | 0.0 | 0.0 | 0.00 | 0.00 | 0.00 | 90 | 1015.2 |
| 20260508071628 | 36 | 35 | 0.0 | 0.0 | 0.00 | 0.00 | 0.00 | 90 | 1015.2 |
| 20260508071126 | 37 | 35 | 0.0 | 0.0 | 0.00 | 0.00 | 0.00 | 89 | 1015.1 |
| 20260508070623 | 37 | 35 | 0.0 | 0.0 | 0.00 | 0.00 | 0.00 | 89 | 1015.1 |
| 20260508070122 | 37 | 35 | 0.0 | 0.0 | 0.00 | 0.00 | 0.00 | 88 | 1015.2 |
| 20260508065618 | 37 | 35 | 0.0 | 0.0 | 0.00 | 0.00 | 0.00 | 87 | 1015.1 |
| 20260508065116 | 38 | 35 | 0.0 | 0.0 | 0.00 | 0.00 | 0.00 | 87 | 1015.1 |
| 20260508064614 | 38 | 35 | 0.0 | 0.0 | 0.00 | 0.00 | 0.00 | 87 | 1015.3 |
| 20260508064112 | 38 | 35 | 0.0 | 0.0 | 0.00 | 0.00 | 0.00 | 87 | 1015.3 |
| 20260508063609 | 38 | 35 | 0.0 | 0.0 | 0.00 | 0.00 | 0.00 | 87 | 1015.2 |
| 20260508063107 | 37 | 35 | 0.0 | 0.0 | 0.00 | 0.00 | 0.00 | 87 | 1015.1 |
| 20260508062604 | 37 | 36 | 0.0 | 0.0 | 0.00 | 0.00 | 0.00 | 87 | 1015.2 |
| 20260508062101 | 37 | 36 | 0.0 | 0.0 | 0.00 | 0.00 | 0.00 | 87 | 1015.2 |
| 20260508061558 | 37 | 36 | 0.0 | 0.0 | 0.00 | 0.00 | 0.00 | 87 | 1015.3 |
| 20260508061055 | 37 | 36 | 0.0 | 0.0 | 0.00 | 0.00 | 0.00 | 87 | 1015.1 |
| 20260508060552 | 37 | 35 | 0.0 | 0.0 | 0.00 | 0.00 | 0.00 | 86 | 1015.3 |
| 20260508060049 | 37 | 36 | 0.0 | 0.0 | 0.00 | 0.00 | 0.00 | 86 | 1015.3 |
| 20260508055545 | 37 | 36 | 0.0 | 0.0 | 0.00 | 0.00 | 0.00 | 86 | 1015.3 |
| 20260508055042 | 37 | 37 | 0.0 | 0.0 | 0.00 | 0.00 | 0.00 | 86 | 1015.3 |
| 20260508054538 | 37 | 37 | 0.0 | 0.0 | 0.00 | 0.00 | 0.00 | 85 | 1015.4 |
| 20260508054036 | 37 | 36 | 0.0 | 0.0 | 0.00 | 0.00 | 0.00 | 85 | 1015.5 |
| 20260508053532 | 37 | 36 | 0.0 | 0.0 | 0.00 | 0.00 | 0.00 | 85 | 1015.3 |
| 20260508053031 | 37 | 37 | 0.0 | 0.0 | 0.00 | 0.00 | 0.00 | 85 | 1015.5 |
| 20260508052528 | 37 | 36 | 0.0 | 0.0 | 0.00 | 0.00 | 0.00 | 84 | 1015.6 |
| 20260508052024 | 38 | 37 | 0.0 | 0.0 | 0.00 | 0.00 | 0.00 | 84 | 1015.7 |
| 20260508051521 | 38 | 39 | 0.0 | 0.0 | 0.00 | 0.00 | 0.00 | 84 | 1015.8 |
| 20260508051016 | 38 | 39 | 0.0 | 0.0 | 0.00 | 0.00 | 0.00 | 83 | 1016.0 |
| 20260508050513 | 38 | 39 | 0.0 | 0.0 | 0.00 | 0.00 | 0.00 | 83 | 1016.0 |
| 20260508050010 | 39 | 39 | 0.0 | 0.0 | 0.00 | 0.00 | 0.00 | 82 | 1015.8 |
| 20260508045506 | 39 | 39 | 0.0 | 0.0 | 0.00 | 0.00 | 0.00 | 81 | 1015.8 |
| 20260508045004 | 39 | 40 | 0.0 | 0.0 | 0.00 | 0.00 | 0.00 | 80 | 1015.7 |
| 20260508044501 | 39 | 40 | 0.0 | 0.0 | 0.00 | 0.00 | 0.00 | 79 | 1015.6 |
| 20260508043956 | 39 | 41 | 0.0 | 0.0 | 0.00 | 0.00 | 0.00 | 78 | 1015.4 |
| 20260508043454 | 40 | 41 | 0.0 | 0.0 | 0.00 | 0.00 | 0.00 | 77 | 1015.4 |
| 20260508042949 | 41 | 41 | 0.0 | 0.0 | 0.00 | 0.00 | 0.00 | 76 | 1015.5 |
| 20260508042448 | 41 | 40 | 0.0 | 0.0 | 0.00 | 0.00 | 0.00 | 75 | 1015.2 |
| 20260508041944 | 42 | 41 | 0.0 | 0.0 | 0.00 | 0.00 | 0.00 | 74 | 1015.5 |
| 20260508041441 | 42 | 36 | 0.0 | 0.0 | 0.00 | 0.00 | 0.00 | 71 | 1015.2 |
| 20260508040938 | 43 | 40 | 0.0 | 0.0 | 0.00 | 0.00 | 0.00 | 70 | 1015.3 |
| 20260508040435 | 42 | 39 | 1.0 | 2.0 | 0.00 | 0.00 | 0.00 | 71 | 1015.3 |
| 20260508035933 | 42 | 40 | 0.0 | 1.0 | 0.00 | 0.00 | 0.00 | 70 | 1015.2 |
| 20260508035429 | 42 | 36 | 0.0 | 0.0 | 0.00 | 0.00 | 0.00 | 72 | 1015.3 |
| 20260508034926 | 42 | 42 | 0.0 | 0.0 | 0.00 | 0.00 | 0.00 | 71 | 1015.2 |
| 20260508034424 | 42 | 38 | 0.0 | 0.0 | 0.00 | 0.00 | 0.00 | 71 | 1015.2 |
| 20260508033920 | 43 | 41 | 0.0 | 0.0 | 0.00 | 0.00 | 0.00 | 70 | 1015.2 |
| 20260508033418 | 43 | 50 | 1.0 | 1.0 | 0.00 | 0.00 | 0.00 | 70 | 1015.3 |
| 20260508032915 | 43 | 39 | 1.0 | 1.0 | 0.00 | 0.00 | 0.00 | 69 | 1015.3 |
| 20260508032413 | 43 | 43 | 0.0 | 0.0 | 0.00 | 0.00 | 0.00 | 69 | 1015.2 |
| 20260508031909 | 44 | 40 | 1.0 | 1.0 | 0.00 | 0.00 | 0.00 | 68 | 1015.1 |
| 20260508031407 | 44 | 39 | 1.0 | 1.0 | 0.00 | 0.00 | 0.00 | 68 | 1015.2 |
| 20260508030902 | 44 | 37 | 0.0 | 0.0 | 0.00 | 0.00 | 0.00 | 68 | 1015.1 |
| 20260508030400 | 43 | 32 | 0.0 | 1.0 | 0.00 | 0.00 | 0.00 | 68 | 1015.0 |
| 20260508025857 | 42 | 42 | 1.0 | 1.0 | 0.00 | 0.00 | 0.00 | 71 | 1015.1 |
| 20260508025353 | 42 | 38 | 0.0 | 0.0 | 0.00 | 0.00 | 0.00 | 74 | 1015.2 |
| 20260508024850 | 42 | 38 | 0.0 | 0.0 | 0.00 | 0.00 | 0.00 | 77 | 1015.3 |
| 20260508024347 | 42 | 38 | 0.0 | 0.0 | 0.00 | 0.00 | 0.00 | 76 | 1015.2 |
| 20260508023844 | 42 | 38 | 0.0 | 0.0 | 0.00 | 0.00 | 0.00 | 75 | 1015.2 |
| 20260508023341 | 42 | 38 | 0.0 | 0.0 | 0.00 | 0.00 | 0.00 | 75 | 1015.3 |
| 20260508022837 | 42 | 35 | 0.0 | 0.0 | 0.00 | 0.00 | 0.00 | 73 | 1015.2 |
| 20260508022333 | 43 | 35 | 0.0 | 0.0 | 0.00 | 0.00 | 0.00 | 73 | 1015.1 |
| 20260508021830 | 43 | 35 | 0.0 | 0.0 | 0.00 | 0.00 | 0.00 | 73 | 1015.1 |
| 20260508021326 | 43 | 35 | 0.0 | 0.0 | 0.00 | 0.00 | 0.00 | 72 | 1014.8 |
| 20260508020822 | 43 | 36 | 0.0 | 0.0 | 0.00 | 0.00 | 0.00 | 71 | 1015.1 |
| 20260508020320 | 44 | 36 | 0.0 | 0.0 | 0.00 | 0.00 | 0.00 | 71 | 1015.0 |
| 20260508015817 | 44 | 35 | 0.0 | 0.0 | 0.00 | 0.00 | 0.00 | 69 | 1014.9 |
| 20260508015315 | 45 | 36 | 0.0 | 1.0 | 0.00 | 0.00 | 0.00 | 69 | 1014.8 |
| 20260508014811 | 45 | 37 | 0.0 | 0.0 | 0.00 | 0.00 | 0.00 | 66 | 1014.8 |
| 20260508014308 | 45 | 37 | 0.0 | 0.0 | 0.00 | 0.00 | 0.00 | 65 | 1014.7 |
| 20260508013803 | 46 | 37 | 0.0 | 0.0 | 0.00 | 0.00 | 0.00 | 62 | 1014.6 |
| 20260508013300 | 46 | 37 | 0.0 | 0.0 | 0.00 | 0.00 | 0.00 | 60 | 1014.6 |
| 20260508012758 | 47 | 40 | 0.0 | 0.0 | 0.00 | 0.00 | 0.00 | 59 | 1014.5 |
| 20260508012255 | 46 | 39 | 0.0 | 1.0 | 0.00 | 0.00 | 0.00 | 60 | 1014.2 |
| 20260508011753 | 46 | 36 | 0.0 | 0.0 | 0.00 | 0.00 | 0.00 | 62 | 1014.4 |
| 20260508011250 | 46 | 36 | 0.0 | 0.0 | 0.00 | 0.00 | 0.00 | 62 | 1014.4 |
| 20260508010747 | 47 | 36 | 0.0 | 0.0 | 0.00 | 0.00 | 0.00 | 61 | 1014.3 |
| 20260508010245 | 47 | 37 | 0.0 | 0.0 | 0.00 | 0.00 | 0.00 | 60 | 1014.3 |
| 20260508005741 | 47 | 37 | 0.0 | 0.0 | 0.00 | 0.00 | 0.00 | 58 | 1014.2 |
| 20260508005238 | 48 | 37 | 0.0 | 0.0 | 0.00 | 0.00 | 0.00 | 59 | 1014.1 |
| 20260508004734 | 48 | 37 | 0.0 | 0.0 | 0.00 | 0.00 | 0.00 | 57 | 1013.9 |
| 20260508004230 | 49 | 37 | 0.0 | 0.0 | 0.00 | 0.00 | 0.00 | 56 | 1014.3 |
| 20260508003727 | 49 | 37 | 0.0 | 0.0 | 0.00 | 0.00 | 0.00 | 55 | 1014.2 |
| 20260508003224 | 50 | 39 | 0.0 | 0.0 | 0.00 | 0.00 | 0.00 | 55 | 1014.2 |